Time,TemperatureF,DewpointF,PressureIn,WindDirection,WindDirectionDegrees,WindSpeedMPH,WindSpeedGustMPH,Humidity,HourlyPrecipIn,Conditions,Clouds,dailyrainin,SoftwareType,DateUTC
2013-09-01 00:03:00,-999.0,-99.9,29.72,SW,222,1.0,11.0,-999,-99.99,,,-99.99,,2013-09-01 04:03:00,
2013-09-01 00:25:00,75.0,73.0,29.72,SW,226,0.0,10.0,95,0.00,,,0.38,,2013-09-01 04:25:00,
2013-09-01 00:54:00,75.0,74.0,29.72,SW,215,2.0,8.0,96,0.00,,,0.38,,2013-09-01 04:54:00,
2013-09-01 01:23:00,75.0,74.0,29.72,SW,216,2.0,8.0,96,0.00,,,0.38,,2013-09-01 05:23:00,
2013-09-01 01:52:00,75.0,74.0,29.70,SW,225,0.0,6.0,96,0.00,,,0.38,,2013-09-01 05:52:00,
2013-09-01 02:22:00,75.0,74.0,29.70,SW,224,3.0,8.0,97,0.00,,,0.38,,2013-09-01 06:22:00,
2013-09-01 02:52:00,75.0,74.0,29.70,SW,225,4.0,8.0,97,0.00,,,0.38,,2013-09-01 06:52:00,
2013-09-01 03:22:00,74.0,73.0,29.70,WSW,243,0.0,7.0,97,0.00,,,0.38,,2013-09-01 07:22:00,
2013-09-01 03:52:00,74.0,73.0,29.69,WSW,243,0.0,0.0,97,0.00,,,0.38,,2013-09-01 07:52:00,
2013-09-01 04:22:00,74.0,73.0,29.71,WSW,243,0.0,0.0,98,0.00,,,0.38,,2013-09-01 08:22:00,
2013-09-01 04:52:00,74.0,73.0,29.71,SW,222,2.0,6.0,98,0.00,,,0.38,,2013-09-01 08:52:00,
2013-09-01 05:22:00,74.0,73.0,29.72,West,278,5.0,12.0,97,0.00,,,0.38,,2013-09-01 09:22:00,
2013-09-01 05:53:00,73.0,72.0,29.71,West,265,0.0,0.0,97,0.01,,,0.39,,2013-09-01 09:53:00,
2013-09-01 06:23:00,73.0,72.0,29.71,NW,318,0.0,0.0,97,0.02,,,0.36,,2013-09-01 10:23:00,
2013-09-01 06:53:00,73.0,73.0,29.74,WNW,294,0.0,0.0,99,0.00,,,0.06,,2013-09-01 10:53:00,
2013-09-01 07:12:00,73.0,72.0,29.75,WSW,251,0.0,3.0,98,0.00,,,0.05,,2013-09-01 11:12:00,
2013-09-01 07:22:00,73.0,72.0,29.75,WSW,251,0.0,0.0,98,0.00,,,0.04,,2013-09-01 11:22:00,
2013-09-01 07:52:00,73.0,72.0,29.76,SW,225,2.0,8.0,98,0.00,,,0.04,,2013-09-01 11:52:00,
2013-09-01 08:12:00,73.0,72.0,29.77,SW,224,0.0,4.0,97,0.00,,,0.04,,2013-09-01 12:12:00,
2013-09-01 08:22:00,73.0,72.0,29.77,SW,225,3.0,6.0,96,0.00,,,0.04,,2013-09-01 12:22:00,
2013-09-01 08:52:00,73.0,71.0,29.77,SW,224,2.0,7.0,95,0.00,,,0.04,,2013-09-01 12:52:00,
2013-09-01 09:11:00,73.0,71.0,29.77,SW,232,1.0,7.0,94,0.00,,,0.03,,2013-09-01 13:11:00,
2013-09-01 09:21:00,73.0,71.0,29.77,SW,225,4.0,7.0,93,0.00,,,0.03,,2013-09-01 13:21:00,
2013-09-01 09:52:00,74.0,70.0,29.77,SW,227,2.0,9.0,87,0.00,,,0.03,,2013-09-01 13:52:00,
2013-09-01 10:22:00,75.0,71.0,29.78,SW,224,1.0,8.0,86,0.00,,,0.03,,2013-09-01 14:22:00,
2013-09-01 10:52:00,75.0,70.0,29.79,SW,231,0.0,6.0,84,0.00,,,0.03,,2013-09-01 14:52:00,
2013-09-01 11:23:00,75.0,70.0,29.79,SW,231,2.0,7.0,85,0.00,,,0.03,,2013-09-01 15:23:00,
2013-09-01 11:45:00,76.0,71.0,29.79,SW,222,3.0,7.0,84,0.00,,,0.02,,2013-09-01 15:45:00,
2013-09-01 11:55:00,76.0,71.0,29.79,SW,230,1.0,11.0,85,0.00,,,0.02,,2013-09-01 15:55:00,
2013-09-01 12:24:00,76.0,72.0,29.78,SW,231,1.0,8.0,86,0.00,,,0.02,,2013-09-01 16:24:00,
2013-09-01 12:53:00,78.0,72.0,29.78,SW,230,5.0,8.0,81,0.00,,,0.02,,2013-09-01 16:53:00,
2013-09-01 13:23:00,79.0,73.0,29.77,WNW,286,0.0,8.0,81,0.00,,,0.02,,2013-09-01 17:23:00,
2013-09-01 13:52:00,80.0,73.0,29.76,SSW,206,2.0,13.0,79,0.00,,,0.02,,2013-09-01 17:52:00,
2013-09-01 14:22:00,81.0,72.0,29.75,WNW,284,3.0,7.0,74,0.00,,,0.02,,2013-09-01 18:22:00,
2013-09-01 14:42:00,82.0,72.0,29.74,West,279,2.0,8.0,72,0.00,,,0.02,,2013-09-01 18:42:00,
2013-09-01 14:52:00,83.0,73.0,29.74,WSW,237,1.0,7.0,73,0.00,,,0.02,,2013-09-01 18:52:00,
2013-09-01 15:12:00,83.0,72.0,29.75,SW,231,5.0,11.0,70,0.00,,,0.02,,2013-09-01 19:12:00,
2013-09-01 15:22:00,84.0,74.0,29.75,SW,225,3.0,10.0,71,0.00,,,0.02,,2013-09-01 19:22:00,
2013-09-01 15:52:00,83.0,73.0,29.74,SW,215,0.0,7.0,73,0.00,,,0.02,,2013-09-01 19:52:00,
2013-09-01 16:22:00,83.0,73.0,29.73,SW,223,1.0,10.0,73,0.00,,,0.02,,2013-09-01 20:22:00,
2013-09-01 16:52:00,82.0,72.0,29.74,SW,222,1.0,9.0,73,0.00,,,0.02,,2013-09-01 20:52:00,
2013-09-01 17:22:00,82.0,73.0,29.74,SW,229,1.0,7.0,74,0.00,,,0.02,,2013-09-01 21:22:00,
2013-09-01 17:55:00,81.0,73.0,29.74,SW,215,0.0,7.0,76,0.00,,,0.02,,2013-09-01 21:55:00,
2013-09-01 18:24:00,79.0,72.0,29.76,SW,228,1.0,10.0,79,0.00,,,0.02,,2013-09-01 22:24:00,
2013-09-01 18:53:00,79.0,74.0,29.77,SSW,209,0.0,5.0,84,0.00,,,0.02,,2013-09-01 22:53:00,
2013-09-01 19:23:00,78.0,73.0,29.77,South,179,0.0,0.0,86,0.00,,,0.02,,2013-09-01 23:23:00,
2013-09-01 19:53:00,77.0,74.0,29.78,South,185,0.0,0.0,89,0.00,,,0.02,,2013-09-01 23:53:00,
2013-09-01 20:22:00,77.0,74.0,29.78,South,185,0.0,0.0,91,0.00,,,0.02,,2013-09-02 00:22:00,
2013-09-01 20:42:00,77.0,74.0,29.79,SE,140,0.0,0.0,92,0.00,,,0.02,,2013-09-02 00:42:00,
2013-09-01 20:52:00,77.0,74.0,29.79,South,185,0.0,0.0,92,0.00,,,0.02,,2013-09-02 00:52:00,
2013-09-01 21:12:00,77.0,74.0,29.79,SSE,162,0.0,5.0,92,0.00,,,0.02,,2013-09-02 01:12:00,
2013-09-01 21:22:00,76.0,74.0,29.79,SSW,195,0.0,5.0,92,0.00,,,0.02,,2013-09-02 01:22:00,
2013-09-01 21:52:00,76.0,74.0,29.79,South,178,0.0,4.0,93,0.00,,,0.02,,2013-09-02 01:52:00,
2013-09-01 22:22:00,75.0,73.0,29.79,SSE,154,0.0,5.0,94,0.00,,,0.02,,2013-09-02 02:22:00,
2013-09-01 22:42:00,75.0,73.0,29.79,South,181,0.0,0.0,95,0.00,,,0.02,,2013-09-02 02:42:00,
2013-09-01 22:52:00,75.0,73.0,29.79,South,186,0.0,0.0,95,0.00,,,0.02,,2013-09-02 02:52:00,
2013-09-01 23:22:00,75.0,74.0,29.80,SSW,208,0.0,0.0,96,0.00,,,0.02,,2013-09-02 03:22:00,
2013-09-01 23:56:00,75.0,74.0,29.80,South,172,0.0,0.0,97,0.00,,,0.02,,2013-09-02 03:56:00,